Location: Twillingate Astronomical Observatory
(49.6173°N, 54.7580°W)
Time: 03:18:46
(UTC-03:-30)

Amateur Radio Satellites - All Passes

Search period start: 03 December 2016 02:48
Search period end: 04 December 2016 02:48
Location: Twillingate Astronomical Observatory, 49.6173°N, 54.7580°W

Satellite Date Start Highest point End Downlink Frequencies (MHz)
Time Altitude Azimuth
Gurwin Techsat 1B 03 Dec 02:52:59 02:58:14 61° 290° (WNW) 03:03:28 435.225
Cosmos 2499 03 Dec 02:55:29 03:03:09 34° 297° (WNW) 03:11:05 435.465 / 435.565
STARS 03 Dec 02:57:14 03:00:59 27° 63° (ENE) 03:04:44 437.465
AO-85 03 Dec 03:09:20 03:14:04 53° 124° (ESE) 03:18:28 145.980
CUBESAT XI-V 03 Dec 03:13:33 03:17:25 27° 64° (ENE) 03:21:18 437.345
PHONESAT 2.4 03 Dec 03:16:18 03:16:51 10° 169° (S) 03:17:24 2401.200-2431.200
SWISSCUBE 03 Dec 03:17:03 03:19:49 15° 272° (W) 03:22:35 437.505
MOZHAYETS 4 03 Dec 03:20:11 03:24:39 50° 261° (W) 03:29:08
BEESAT 03 Dec 03:21:28 03:24:15 15° 272° (W) 03:27:02 436.000
Oscar 19 03 Dec 03:27:23 03:31:07 20° 303° (WNW) 03:34:50 437.125/150
ITAMSAT 1 03 Dec 03:46:38 03:51:51 79° 288° (WNW) 03:57:01 435.822/435.867
SO-50 03 Dec 04:13:19 04:17:34 35° 38° (NE) 04:21:43 436.795
KKS-1 03 Dec 04:17:24 04:21:18 29° 265° (W) 04:25:14 437.445
YUBILEINY 03 Dec 04:18:23 04:24:23 19° 51° (NE) 04:30:22 435.215
AO-7 03 Dec 04:25:17 04:33:43 89° 111° (ESE) 04:42:07 29.400- 29.500
STARS 03 Dec 04:33:02 04:37:12 39° 262° (W) 04:41:24 437.465
Gurwin Techsat 1B 03 Dec 04:35:04 04:37:10 12° 310° (NW) 04:39:17 435.225
GONETS M04 03 Dec 04:49:37 04:52:01 11° 321° (NW) 04:54:25
CUBESAT XI-V 03 Dec 04:50:19 04:54:39 41° 263° (W) 04:59:01 437.345
PHONESAT 2.4 03 Dec 04:50:22 04:51:26 12° 186° (S) 04:52:29 2401.200-2431.200
AO-85 03 Dec 04:50:29 04:54:43 31° 323° (NW) 04:58:40 145.980
GOMX 1 03 Dec 04:52:10 04:56:03 20° 88° (E) 04:59:56 467.674
BRITE-PL 03 Dec 04:57:07 05:02:06 41° 97° (E) 05:07:19 437.365/2234.400
CUTE-I 03 Dec 04:57:41 04:58:33 10° 83° (E) 04:59:26 437.470
HORYU 2 03 Dec 05:18:01 05:22:17 43° 99° (E) 05:26:29 437.375
Cubesat XI-IV 03 Dec 05:20:19 05:23:47 17° 88° (E) 05:27:12 437.490
DOVE 4 03 Dec 05:21:22 05:24:35 16° 86° (E) 05:27:46 437.250
STRAND 1 03 Dec 05:24:02 05:28:20 28° 61° (ENE) 05:32:39 437.568
ITAMSAT 1 03 Dec 05:27:38 05:30:32 15° 307° (NW) 05:33:25 435.822/435.867
NOAA 15 03 Dec 05:29:40 05:33:44 22° 91° (E) 05:37:49 137.62
Cosmos 2504 03 Dec 05:44:38 05:52:11 29° 59° (ENE) 05:59:29 435.465 / 435.565
SO-50 03 Dec 05:53:49 05:58:09 44° 238° (WSW) 06:02:23 436.795
AIST 1 03 Dec 06:01:38 06:04:48 19° 66° (ENE) 06:07:58
NOAA 18 03 Dec 06:13:55 06:18:50 31° 95° (E) 06:23:41 137.9125
YUBILEINY 03 Dec 06:14:18 06:23:07 70° 76° (ENE) 06:31:56 435.215
AO-7 03 Dec 06:18:48 06:25:36 29° 313° (NW) 06:32:25 29.400- 29.500
LilacSat-2 03 Dec 06:24:17 06:28:04 66° 101° (E) 06:31:49 437.200
BEESAT 3 03 Dec 06:25:59 06:29:52 69° 126° (SE) 06:33:48 437.485
GOMX 1 03 Dec 06:29:14 06:34:37 75° 287° (WNW) 06:40:07 467.674
CUTE-I 03 Dec 06:34:17 06:39:38 67° 103° (ESE) 06:44:56 437.470
AO-85 03 Dec 06:34:27 06:36:25 13° 345° (NNW) 06:38:19 145.980
BRITE-PL 03 Dec 06:35:48 06:40:30 35° 294° (WNW) 06:45:27 437.365/2234.400
CUTE 1.7 + AOD 2 03 Dec 06:38:25 06:39:13 10° 86° (E) 06:40:01 437.475
HO-68 03 Dec 06:38:48 06:43:49 20° 87° (E) 06:48:48 435.675
Cosmos 2491 03 Dec 06:46:08 06:54:23 48° 88° (E) 07:02:36 435.465 / 435.565
BEESAT 2 03 Dec 06:47:34 06:51:26 55° 124° (ESE) 06:55:22 435.950
CANX-2 03 Dec 06:53:55 06:56:48 18° 90° (E) 06:59:41 2200.000
HORYU 2 03 Dec 06:54:59 06:58:38 25° 298° (WNW) 07:02:15 437.375
DOVE 4 03 Dec 06:57:35 07:02:57 86° 284° (WNW) 07:08:14 437.250
Cubesat XI-IV 03 Dec 06:59:07 07:04:31 80° 287° (WNW) 07:09:51 437.490
RS-15 03 Dec 07:01:26 07:11:28 34° 105° (ESE) 07:21:48 29.354- 29.394
STRAND 1 03 Dec 07:02:17 07:07:16 50° 260° (W) 07:12:17 437.568
CINEMA 3 03 Dec 07:04:40 07:09:10 34° 94° (E) 07:13:29 145.822/145.860
NOAA 15 03 Dec 07:08:44 07:13:56 61° 290° (WNW) 07:19:08 137.62
AAUSAT CUBESAT 2 03 Dec 07:19:22 07:19:40 10° 86° (E) 07:19:59 437.432
SEEDS 03 Dec 07:26:22 07:29:42 22° 93° (E) 07:33:01 437.485
Cosmos 2504 03 Dec 07:37:43 07:46:40 81° 264° (W) 07:55:11 435.465 / 435.565
AIST 1 03 Dec 07:38:27 07:42:46 54° 265° (W) 07:47:03
PRISM 03 Dec 07:39:13 07:42:54 34° 67° (ENE) 07:46:37 437.425
TIGRISAT 03 Dec 07:42:08 07:43:54 12° 54° (NE) 07:45:39 435.000
ANTELSAT 03 Dec 07:42:24 07:44:24 13° 55° (NE) 07:46:23 437.575/2403.000
COMPASS 1 03 Dec 07:43:27 07:46:48 23° 93° (E) 07:50:08 437.405
CUBEBUG 2 03 Dec 07:46:26 07:50:04 23° 92° (E) 07:53:34 437.445
ZACube-1 03 Dec 07:51:16 07:51:59 10° 85° (E) 07:52:43 437.345
NOAA 18 03 Dec 07:54:22 07:59:41 48° 294° (WNW) 08:04:57 137.9125
LilacSat-2 03 Dec 07:59:56 08:01:53 14° 300° (WNW) 08:03:51 437.200
FUNcube-1 03 Dec 08:00:09 08:01:50 12° 86° (E) 08:03:30 145.935
BEESAT 3 03 Dec 08:04:45 08:07:53 22° 327° (NNW) 08:11:04 437.485
GOMX 1 03 Dec 08:08:53 08:11:53 15° 305° (NW) 08:14:54 467.674
CUTE 1.7 + AOD 2 03 Dec 08:11:28 08:15:43 90° 118° (ESE) 08:19:56 437.475
YUBILEINY 03 Dec 08:11:51 08:19:16 32° 279° (W) 08:26:42 435.215
AO-7 03 Dec 08:13:49 08:15:39 11° 338° (NNW) 08:17:28 29.400- 29.500
CUTE-I 03 Dec 08:15:08 08:19:13 23° 302° (WNW) 08:23:19 437.470
AO-85 03 Dec 08:17:13 08:18:43 12° 11° (N) 08:20:10 145.980
HO-68 03 Dec 08:25:17 08:32:34 87° 108° (ESE) 08:39:47 435.675
BEESAT 2 03 Dec 08:26:08 08:29:31 26° 325° (NW) 08:32:55 435.950
CANX-2 03 Dec 08:28:53 08:33:00 53° 289° (WNW) 08:37:06 2200.000
Oscar 11 03 Dec 08:33:49 08:37:24 25° 93° (E) 08:40:58 145.826/435.025
UWE-3 03 Dec 08:35:50 08:40:05 45° 98° (E) 08:44:11 435.000/436.395/437.385
DOVE 4 03 Dec 08:36:34 08:39:53 17° 304° (NW) 08:43:11 437.250
Cubesat XI-IV 03 Dec 08:40:38 08:43:47 16° 307° (NW) 08:46:55 437.490
CINEMA 3 03 Dec 08:41:48 08:46:17 35° 294° (WNW) 08:50:36 145.822/145.860
Cosmos 2491 03 Dec 08:42:51 08:51:16 48° 291° (WNW) 08:59:42 435.465 / 435.565
UNISAT 6 03 Dec 08:44:22 08:48:45 40° 68° (ENE) 08:53:06 437.425
AIST 2 03 Dec 08:45:06 08:48:39 29° 118° (ESE) 08:52:16 435.215
DELFI C3 03 Dec 08:46:35 08:48:22 13° 88° (E) 08:50:10 145.870
NOAA 15 03 Dec 08:50:39 08:52:43 12° 310° (NW) 08:54:48 137.62
AAUSAT CUBESAT 2 03 Dec 08:51:38 08:55:47 89° 106° (ESE) 08:59:56 437.432
JAS-2 03 Dec 08:51:49 08:55:55 19° 55° (NE) 08:59:45 435.910
Cosmos 2499 03 Dec 08:57:53 08:58:36 10° 35° (NE) 08:59:20 435.465 / 435.565
SEEDS 03 Dec 09:01:37 09:05:33 41° 291° (WNW) 09:09:29 437.485
CUSAT 1 03 Dec 09:06:56 09:08:42 14° 94° (E) 09:10:21 437.405
RS-15 03 Dec 09:10:43 09:22:40 86° 310° (NW) 09:35:09 29.354- 29.394
POPSAT HIP 1 03 Dec 09:11:47 09:13:03 11° 55° (NE) 09:14:19 437.405
PRISM 03 Dec 09:14:51 09:18:16 26° 265° (W) 09:21:43 437.425
TIGRISAT 03 Dec 09:15:05 09:19:46 71° 74° (ENE) 09:24:26 435.000
ANTELSAT 03 Dec 09:15:38 09:20:20 75° 74° (ENE) 09:25:01 437.575/2403.000
COMPASS 1 03 Dec 09:18:37 09:22:29 39° 291° (WNW) 09:26:22 437.405
CUBEBUG 2 03 Dec 09:22:36 09:26:54 44° 291° (WNW) 09:31:02 437.445
ZACube-1 03 Dec 09:24:39 09:29:01 88° 113° (ESE) 09:33:13 437.345
Cosmos 2504 03 Dec 09:32:37 09:38:39 21° 286° (WNW) 09:44:31 435.465 / 435.565
FUNcube-1 03 Dec 09:34:23 09:38:43 80° 284° (WNW) 09:42:53 145.935
NOAA 18 03 Dec 09:38:03 09:39:05 10° 315° (NW) 09:40:07 137.9125
HUMSAT D 03 Dec 09:46:47 09:50:22 29° 95° (E) 09:53:55 437.325/437.525
CUTE 1.7 + AOD 2 03 Dec 09:49:05 09:50:55 13° 303° (WNW) 09:52:45 437.475
AO-85 03 Dec 09:56:58 10:00:32 27° 35° (NE) 10:03:56 145.980
NANOSAT C BR1 03 Dec 10:05:53 10:09:38 31° 66° (ENE) 10:13:26 145.865
BUGSAT 1 03 Dec 10:06:51 10:09:08 14° 57° (ENE) 10:11:24 437.445
BEESAT 2 03 Dec 10:07:47 10:08:39 11° 348° (NNW) 10:09:30 435.950
QB50P2 03 Dec 10:08:12 10:12:09 37° 67° (ENE) 10:16:07 145.880/145.840
POLYITAN 1 03 Dec 10:08:52 10:12:48 35° 67° (ENE) 10:16:43 437.675
Oscar 11 03 Dec 10:09:39 10:13:40 38° 292° (WNW) 10:17:39 145.826/435.025
UWE-3 03 Dec 10:12:49 10:16:17 23° 298° (WNW) 10:19:40 435.000/436.395/437.385
HO-68 03 Dec 10:13:52 10:19:30 26° 309° (NW) 10:25:09 435.675
DELFI C3 03 Dec 10:19:42 10:23:39 69° 285° (WNW) 10:27:36 145.870
UNISAT 6 03 Dec 10:21:29 10:25:33 28° 266° (W) 10:29:36 437.425
QB50P1 03 Dec 10:22:48 10:26:54 47° 70° (ENE) 10:31:02 145.935-145.965
AIST 2 03 Dec 10:23:02 10:26:59 43° 317° (NW) 10:31:01 435.215
AAUSAT CUBESAT 2 03 Dec 10:28:54 10:30:38 12° 303° (WNW) 10:32:22 437.432
DUCHIFAT 1 03 Dec 10:29:26 10:33:32 48° 70° (ENE) 10:37:39 145.980
JAS-2 03 Dec 10:33:51 10:40:24 86° 75° (ENE) 10:46:12 435.910
POPSAT HIP 1 03 Dec 10:43:47 10:48:04 75° 73° (ENE) 10:52:23 437.405
Cosmos 2491 03 Dec 10:47:07 10:50:54 13° 318° (NW) 10:54:42 435.465 / 435.565
Cosmos 2499 03 Dec 10:47:12 10:55:10 36° 64° (ENE) 11:02:41 435.465 / 435.565
CUSAT 1 03 Dec 10:47:48 10:50:28 24° 287° (WNW) 10:52:50 437.405
GONETS M04 03 Dec 10:51:03 10:58:54 35° 64° (ENE) 11:06:41
TIGRISAT 03 Dec 10:54:00 10:56:57 16° 271° (W) 10:59:53 435.000
ANTELSAT 03 Dec 10:54:48 10:57:34 15° 272° (W) 11:00:20 437.575/2403.000
DANDE 03 Dec 10:59:02 11:03:49 88° 278° (W) 11:07:25 436.750
CUBEBUG 1 03 Dec 11:02:01 11:05:12 19° 91° (E) 11:08:21 437.445
ZACube-1 03 Dec 11:02:37 11:04:38 13° 303° (WNW) 11:06:36 437.345
Gurwin Techsat 1B 03 Dec 11:03:44 11:05:05 11° 48° (NE) 11:06:27 435.225
VELOX 1 03 Dec 11:04:51 11:07:13 14° 88° (E) 11:09:34 145.980
50 SAT 03 Dec 11:11:54 11:12:40 11° 89° (E) 11:13:26 437.505
FUNcube-1 03 Dec 11:12:45 11:14:11 12° 305° (NW) 11:15:37 145.935
HUMSAT D 03 Dec 11:22:22 11:25:59 31° 293° (WNW) 11:29:35 437.325/437.525
PCSat 03 Dec 11:24:40 11:28:38 21° 107° (ESE) 11:32:37 145.827
BEESAT 3 03 Dec 11:25:16 11:26:23 11° 15° (NNE) 11:27:28 437.485
RS-15 03 Dec 11:25:30 11:37:01 45° 340° (NNW) 11:48:47 29.354- 29.394
DX 1 03 Dec 11:29:20 11:31:30 13° 88° (E) 11:33:38 434.975-435.025
Oscar 19 03 Dec 11:30:14 11:34:31 28° 61° (ENE) 11:38:49 437.125/150
AO-85 03 Dec 11:37:15 11:41:10 49° 237° (WSW) 11:44:55 145.980
BUGSAT 1 03 Dec 11:39:41 11:43:54 81° 256° (WSW) 11:48:12 437.445
NANOSAT C BR1 03 Dec 11:41:31 11:45:20 31° 264° (W) 11:49:11 145.865
ESTCUBE 1 03 Dec 11:42:10 11:46:41 69° 102° (ESE) 11:51:12 437.505/2401.250
UKube-1 03 Dec 11:42:55 11:45:08 14° 89° (E) 11:47:21 .
QB50P2 03 Dec 11:44:24 11:48:02 27° 266° (W) 11:51:42 145.880/145.840
POLYITAN 1 03 Dec 11:44:57 11:48:39 28° 265° (W) 11:52:22 437.675
BEESAT 2 03 Dec 11:47:25 11:48:16 11° 12° (NNE) 11:49:07 435.950
AO-7 03 Dec 11:49:07 11:53:49 17° 34° (NE) 11:58:32 29.400- 29.500
QB50P1 03 Dec 11:59:41 12:02:55 21° 268° (W) 12:06:11 145.935-145.965
SPROUT 03 Dec 12:01:14 12:05:09 32° 96° (E) 12:09:00 437.525
AISAT 03 Dec 12:02:36 12:06:59 50° 100° (E) 12:11:20 437.250
AIST 2 03 Dec 12:04:15 12:06:31 14° 340° (NNW) 12:08:48 435.215
DUCHIFAT 1 03 Dec 12:06:17 12:09:28 20° 268° (W) 12:12:40 145.980
JAS-2 03 Dec 12:21:51 12:26:05 18° 271° (W) 12:30:03 435.910
POPSAT HIP 1 03 Dec 12:22:15 12:24:22 13° 272° (W) 12:26:31 437.405
CUBEBUG 1 03 Dec 12:37:27 12:41:49 55° 289° (WNW) 12:46:08 437.445
Gurwin Techsat 1B 03 Dec 12:38:45 12:43:55 53° 68° (ENE) 12:49:07 435.225
VELOX 1 03 Dec 12:39:44 12:44:14 77° 287° (WNW) 12:48:42 145.980
Cosmos 2499 03 Dec 12:40:17 12:48:56 65° 268° (W) 12:57:02 435.465 / 435.565
50 SAT 03 Dec 12:42:52 12:46:24 68° 286° (WNW) 12:49:56 437.505
GONETS M04 03 Dec 12:47:45 12:56:21 65° 267° (W) 13:04:56
BEESAT 3 03 Dec 13:01:45 13:05:16 28° 37° (NE) 13:08:46 437.485
DX 1 03 Dec 13:03:49 13:08:15 78° 285° (WNW) 13:12:38 434.975-435.025
PCSat 03 Dec 13:06:03 13:11:28 75° 307° (NW) 13:16:56 145.827
Oscar 19 03 Dec 13:08:37 13:13:35 50° 260° (W) 13:18:37 437.125/150
UKube-1 03 Dec 13:17:20 13:21:42 75° 287° (WNW) 13:26:01 .
ESTCUBE 1 03 Dec 13:20:01 13:23:02 18° 301° (WNW) 13:26:01 437.505/2401.250
BEESAT 2 03 Dec 13:23:59 13:27:25 25° 35° (NE) 13:30:49 435.950
ITAMSAT 1 03 Dec 13:30:03 13:34:54 40° 65° (ENE) 13:39:46 435.822/435.867
SWISSCUBE 03 Dec 13:33:51 13:36:23 14° 88° (E) 13:38:55 437.505
TISAT 1 03 Dec 13:34:24 13:38:34 52° 100° (E) 13:42:41 437.305
AO-7 03 Dec 13:36:51 13:44:41 49° 58° (ENE) 13:52:35 29.400- 29.500
SPROUT 03 Dec 13:37:14 13:41:01 30° 294° (WNW) 13:44:47 437.525
BEESAT 03 Dec 13:38:15 13:40:47 14° 88° (E) 13:43:18 436.000
AUBIESAT-1 03 Dec 13:39:36 13:41:18 12° 91° (E) 13:42:58 437.475
AISAT 03 Dec 13:39:41 13:43:10 23° 299° (WNW) 13:46:38 437.250
RS-15 03 Dec 13:41:38 13:53:11 42° 14° (NNE) 14:04:41 29.354- 29.394
AIST 2 03 Dec 13:46:11 13:46:47 10° 4° (N) 13:47:23 435.215
M-CUBED/EXP-1 PRIME 03 Dec 13:47:55 13:51:05 18° 95° (E) 13:54:12 437.505
ITUPSAT 1 03 Dec 14:02:50 14:06:38 23° 93° (E) 14:10:24 437.325
VELOX 1 03 Dec 14:18:12 14:19:56 12° 306° (NW) 14:21:40 145.980
Gurwin Techsat 1B 03 Dec 14:19:47 14:24:11 26° 267° (W) 14:28:36 435.225
Cosmos 2499 03 Dec 14:35:44 14:40:11 15° 291° (WNW) 14:44:33 435.465 / 435.565
BEESAT 3 03 Dec 14:39:14 14:43:04 46° 237° (WSW) 14:46:53 437.485
BRITE-PL 03 Dec 14:39:15 14:39:32 10° 51° (NE) 14:39:49 437.365/2234.400
DX 1 03 Dec 14:41:59 14:43:42 12° 306° (NW) 14:45:24 434.975-435.025
GONETS M04 03 Dec 14:46:59 14:51:22 15° 290° (WNW) 14:55:45
HORYU 2 03 Dec 14:47:10 14:48:31 11° 53° (NE) 14:49:52 437.375
PCSat 03 Dec 14:51:36 14:55:47 22° 330° (NNW) 14:59:59 145.827
UKube-1 03 Dec 14:55:34 14:56:58 11° 306° (NW) 14:58:24 .
BEESAT 2 03 Dec 15:01:31 15:05:30 58° 235° (SW) 15:09:27 435.950
ITAMSAT 1 03 Dec 15:09:43 15:14:26 34° 264° (W) 15:19:11 435.822/435.867
SWISSCUBE 03 Dec 15:10:01 15:14:49 82° 286° (WNW) 15:19:33 437.505
TISAT 1 03 Dec 15:10:45 15:13:52 20° 299° (WNW) 15:16:57 437.305
MOZHAYETS 4 03 Dec 15:10:51 15:14:47 28° 94° (E) 15:18:41
AUBIESAT-1 03 Dec 15:11:43 15:16:24 82° 110° (ESE) 15:20:56 437.475
BEESAT 03 Dec 15:14:25 15:19:12 82° 287° (WNW) 15:23:57 436.000
NOAA 15 03 Dec 15:18:51 15:20:07 11° 48° (NE) 15:21:23 137.62
M-CUBED/EXP-1 PRIME 03 Dec 15:21:17 15:25:59 70° 294° (WNW) 15:30:36 437.505
AIST 2 03 Dec 15:23:49 15:26:53 19° 28° (NNE) 15:29:58 435.215
AO-7 03 Dec 15:29:31 15:37:29 50° 259° (W) 15:45:33 29.400- 29.500
ITUPSAT 1 03 Dec 15:40:08 15:44:45 51° 292° (WNW) 15:49:21 437.325
RS-15 03 Dec 15:55:36 16:08:05 74° 44° (NE) 16:20:15 29.354- 29.394
KKS-1 03 Dec 16:03:12 16:07:26 38° 98° (E) 16:11:37 437.445
GOMX 1 03 Dec 16:04:40 16:08:33 27° 62° (ENE) 16:12:41 467.674
NOAA 18 03 Dec 16:06:28 16:10:04 18° 53° (NE) 16:13:40 137.9125
BRITE-PL 03 Dec 16:12:46 16:17:00 64° 73° (ENE) 16:21:35 437.365/2234.400
STARS 03 Dec 16:17:56 16:21:44 27° 95° (E) 16:25:30 437.465
HORYU 2 03 Dec 16:19:47 16:24:15 69° 72° (ENE) 16:28:44 437.375
CUTE-I 03 Dec 16:21:41 16:26:14 29° 61° (ENE) 16:30:48 437.470
DOVE 4 03 Dec 16:30:40 16:34:29 24° 60° (ENE) 16:38:30 437.250
PCSat 03 Dec 16:39:03 16:41:19 12° 356° (N) 16:43:34 145.827
CUBESAT XI-V 03 Dec 16:42:02 16:46:19 35° 96° (E) 16:50:36 437.345
O/OREOS (USA 219) 03 Dec 16:43:04 16:47:32 57° 111° (ESE) 16:52:00 437.305
Cubesat XI-IV 03 Dec 16:45:59 16:51:02 43° 66° (ENE) 16:56:06 437.490
AUBIESAT-1 03 Dec 16:47:07 16:50:13 18° 308° (NW) 16:53:17 437.475
MOZHAYETS 4 03 Dec 16:47:49 16:52:04 39° 292° (WNW) 16:56:16
SWISSCUBE 03 Dec 16:49:27 16:51:51 14° 306° (NW) 16:54:16 437.505
Cosmos 2491 03 Dec 16:50:37 16:58:09 31° 61° (ENE) 17:05:37 435.465 / 435.565
NOAA 15 03 Dec 16:53:43 16:58:48 54° 68° (ENE) 17:03:54 137.62
BEESAT 03 Dec 16:53:48 16:56:15 14° 306° (NW) 16:58:41 436.000
M-CUBED/EXP-1 PRIME 03 Dec 16:57:18 16:59:39 14° 312° (NW) 17:02:00 437.505
AIST 2 03 Dec 17:01:47 17:06:02 78° 49° (NE) 17:10:16 435.215
LilacSat-2 03 Dec 17:09:57 17:13:45 60° 74° (ENE) 17:17:34 437.200
HO-68 03 Dec 17:12:27 17:18:08 26° 52° (NE) 17:23:50 435.675
YUBILEINY 03 Dec 17:29:08 17:33:48 16° 71° (ENE) 17:38:29 435.215
CUTE 1.7 + AOD 2 03 Dec 17:34:32 17:36:53 15° 59° (ENE) 17:39:13 437.475
KKS-1 03 Dec 17:40:01 17:43:52 28° 296° (WNW) 17:47:42 437.445
GOMX 1 03 Dec 17:42:05 17:46:26 43° 264° (W) 17:51:06 467.674
ISS 03 Dec 17:42:41 17:45:32 27° 145° (SE) 17:48:22 145.825
NOAA 18 03 Dec 17:44:25 17:49:58 85° 70° (ENE) 17:55:34 137.9125
CANX-2 03 Dec 17:50:44 17:54:03 23° 63° (ENE) 17:57:21 2200.000
BRITE-PL 03 Dec 17:53:29 17:56:06 16° 273° (W) 17:58:49 437.365/2234.400
STARS 03 Dec 17:54:04 17:58:11 38° 293° (WNW) 18:02:17 437.465
HORYU 2 03 Dec 17:58:35 18:01:17 16° 271° (W) 18:03:59 437.375
CUTE-I 03 Dec 18:00:48 18:06:02 52° 260° (W) 18:11:18 437.470
UWE-3 03 Dec 18:04:12 18:05:15 11° 54° (NE) 18:06:18 435.000/436.395/437.385
DOVE 4 03 Dec 18:07:05 18:11:47 57° 261° (W) 18:16:48 437.250
RS-15 03 Dec 18:08:42 18:19:58 44° 250° (WSW) 18:30:57 29.354- 29.394
CINEMA 3 03 Dec 18:09:41 18:14:26 50° 69° (ENE) 18:19:19 145.822/145.860
AAUSAT CUBESAT 2 03 Dec 18:12:48 18:14:49 13° 58° (ENE) 18:16:49 437.432
CUBESAT XI-V 03 Dec 18:19:33 18:23:39 32° 295° (WNW) 18:27:47 437.345
SEEDS 03 Dec 18:22:05 18:25:38 27° 66° (ENE) 18:29:11 437.485
PCSat 03 Dec 18:23:31 18:27:03 17° 22° (NNE) 18:30:34 145.827
O/OREOS (USA 219) 03 Dec 18:23:36 18:27:17 23° 312° (NW) 18:30:58 437.305
Cubesat XI-IV 03 Dec 18:26:23 18:31:13 33° 265° (W) 18:36:05 437.490
Cosmos 2504 03 Dec 18:30:53 18:36:20 19° 73° (ENE) 18:41:55 435.465 / 435.565
NOAA 15 03 Dec 18:34:36 18:38:53 25° 267° (W) 18:43:12 137.62
COMPASS 1 03 Dec 18:38:11 18:41:42 27° 65° (ENE) 18:45:13 437.405
AIST 2 03 Dec 18:41:27 18:43:59 16° 248° (WSW) 18:46:31 435.215
LilacSat-2 03 Dec 18:46:25 18:48:26 14° 271° (W) 18:50:27 437.200
Cosmos 2491 03 Dec 18:47:11 18:55:54 75° 265° (W) 19:04:33 435.465 / 435.565
CUBEBUG 2 03 Dec 18:47:57 18:52:15 35° 66° (ENE) 18:56:32 437.445
ZACube-1 03 Dec 18:49:48 18:52:45 17° 59° (ENE) 18:55:39 437.345
HO-68 03 Dec 18:57:56 19:05:08 84° 252° (WSW) 19:12:23 435.675
FUNcube-1 03 Dec 18:58:56 19:02:07 19° 61° (ENE) 19:05:16 145.935
CUTE 1.7 + AOD 2 03 Dec 19:07:58 19:12:10 76° 256° (WSW) 19:16:25 437.475
STRAND 1 03 Dec 19:08:11 19:12:59 39° 97° (E) 19:17:45 437.568
ISS 03 Dec 19:18:29 19:21:48 84° 345° (NNW) 19:25:07 145.825
YUBILEINY 03 Dec 19:20:15 19:28:51 68° 93° (E) 19:37:31 435.215
CANX-2 03 Dec 19:25:39 19:29:40 43° 262° (W) 19:33:44 2200.000
NOAA 18 03 Dec 19:27:50 19:31:20 17° 272° (W) 19:34:52 137.9125
CUSAT 1 03 Dec 19:31:47 19:33:57 16° 71° (ENE) 19:36:24 437.405
Oscar 11 03 Dec 19:32:29 19:36:22 33° 67° (ENE) 19:40:16 145.826/435.025
UWE-3 03 Dec 19:36:13 19:40:50 64° 73° (ENE) 19:45:25 435.000/436.395/437.385
DELFI C3 03 Dec 19:36:32 19:38:42 15° 60° (ENE) 19:40:53 145.870
AAUSAT CUBESAT 2 03 Dec 19:45:36 19:49:42 81° 255° (WSW) 19:53:51 437.432
CINEMA 3 03 Dec 19:47:45 19:51:49 25° 269° (W) 19:55:58 145.822/145.860
SEEDS 03 Dec 19:57:26 20:01:14 34° 264° (W) 20:05:04 437.485
PCSat 03 Dec 20:06:30 20:11:47 48° 46° (NE) 20:17:02 145.827
AIST 1 03 Dec 20:11:43 20:15:59 70° 97° (E) 20:20:21
SO-50 03 Dec 20:12:29 20:16:03 21° 114° (ESE) 20:19:36 436.795
COMPASS 1 03 Dec 20:13:25 20:17:10 33° 264° (W) 20:20:57 437.405
Cosmos 2504 03 Dec 20:19:51 20:28:10 77° 96° (E) 20:37:01 435.465 / 435.565
ZACube-1 03 Dec 20:23:58 20:28:32 72° 258° (WSW) 20:33:03 437.345
CUBEBUG 2 03 Dec 20:24:31 20:28:51 34° 265° (W) 20:33:10 437.445
FUNcube-1 03 Dec 20:33:26 20:37:57 63° 259° (W) 20:42:25 145.935
HUMSAT D 03 Dec 20:41:46 20:45:38 36° 68° (ENE) 20:49:29 437.325/437.525
Cosmos 2491 03 Dec 20:45:53 20:51:11 18° 287° (WNW) 20:56:28 435.465 / 435.565
STRAND 1 03 Dec 20:47:33 20:52:07 34° 296° (WNW) 20:56:39 437.568
HO-68 03 Dec 20:49:09 20:53:56 19° 273° (W) 20:58:45 435.675
PRISM 03 Dec 20:51:09 20:54:51 30° 96° (E) 20:58:31 437.425
ISS 03 Dec 20:55:12 20:58:29 59° 3° (N) 21:01:46 145.825
TIGRISAT 03 Dec 21:05:07 21:06:01 11° 85° (E) 21:06:54 435.000
ANTELSAT 03 Dec 21:05:20 21:06:46 11° 85° (E) 21:08:12 437.575/2403.000
Oscar 11 03 Dec 21:08:44 21:12:31 29° 265° (W) 21:16:20 145.826/435.025
DELFI C3 03 Dec 21:09:09 21:13:03 67° 258° (WSW) 21:16:58 145.870
ESTCUBE 1 03 Dec 21:11:17 21:13:55 16° 57° (ENE) 21:16:34 437.505/2401.250
CUSAT 1 03 Dec 21:12:51 21:15:51 34° 262° (W) 21:19:33 437.405
UWE-3 03 Dec 21:14:30 21:17:41 18° 270° (W) 21:20:52 435.000/436.395/437.385
YUBILEINY 03 Dec 21:18:38 21:26:21 34° 297° (WNW) 21:34:10 435.215
AISAT 03 Dec 21:30:50 21:32:29 12° 54° (NE) 21:34:10 437.250
DANDE 03 Dec 21:31:28 21:34:07 89° 133° (SE) 21:37:04 436.750
PCSat 03 Dec 21:50:09 21:55:04 35° 247° (WSW) 21:59:57 145.827
SO-50 03 Dec 21:51:22 21:56:07 69° 313° (NW) 22:00:49 436.795
AIST 1 03 Dec 21:51:36 21:54:08 15° 297° (WNW) 21:56:41
CUBEBUG 1 03 Dec 22:01:52 22:05:33 27° 64° (ENE) 22:09:14 437.445
VELOX 1 03 Dec 22:05:50 22:09:14 22° 61° (ENE) 22:12:39 145.980
UNISAT 6 03 Dec 22:08:09 22:12:28 45° 99° (E) 22:16:39 437.425
Cosmos 2504 03 Dec 22:15:15 22:22:33 31° 300° (WNW) 22:30:10 435.465 / 435.565
HUMSAT D 03 Dec 22:17:47 22:21:20 26° 266° (W) 22:24:52 437.325/437.525
PRISM 03 Dec 22:26:27 22:30:07 31° 294° (WNW) 22:33:47 437.425
DX 1 03 Dec 22:28:29 22:31:46 21° 61° (ENE) 22:35:04 434.975-435.025
ISS 03 Dec 22:31:47 22:35:04 67° 204° (SSW) 22:38:22 145.825
TIGRISAT 03 Dec 22:38:58 22:43:28 85° 104° (ESE) 22:47:50 435.000
ANTELSAT 03 Dec 22:39:42 22:44:12 90° 286° (WNW) 22:48:34 437.575/2403.000
UKube-1 03 Dec 22:41:03 22:44:19 21° 61° (ENE) 22:47:37 .
ESTCUBE 1 03 Dec 22:45:41 22:50:09 79° 255° (WSW) 22:54:40 437.505/2401.250
SPROUT 03 Dec 22:58:29 23:02:33 43° 69° (ENE) 23:06:40 437.525
TISAT 1 03 Dec 22:58:31 22:59:06 10° 54° (NE) 22:59:40 437.305
AISAT 03 Dec 23:03:46 23:08:11 76° 73° (ENE) 23:12:39 437.250
BUGSAT 1 03 Dec 23:19:20 23:20:39 11° 87° (E) 23:21:57 437.445
NANOSAT C BR1 03 Dec 23:21:08 23:24:54 30° 95° (E) 23:28:37 145.865
50 SAT 03 Dec 23:21:55 23:25:26 85° 256° (WSW) 23:28:59 437.505
JAS-2 03 Dec 23:23:17 23:28:18 47° 99° (E) 23:33:23 435.910
QB50P2 03 Dec 23:24:10 23:28:08 36° 97° (E) 23:32:03 145.880/145.840
POLYITAN 1 03 Dec 23:24:49 23:28:44 35° 97° (E) 23:32:37 437.675
Cosmos 2499 03 Dec 23:30:08 23:36:39 25° 77° (ENE) 23:43:20 435.465 / 435.565
SO-50 03 Dec 23:33:53 23:37:24 20° 335° (NNW) 23:40:53 436.795
CUBEBUG 1 03 Dec 23:37:36 23:41:41 39° 262° (W) 23:45:49 437.445
QB50P1 03 Dec 23:38:38 23:42:47 47° 99° (E) 23:46:52 145.935-145.965
VELOX 1 03 Dec 23:41:06 23:45:24 50° 260° (W) 23:49:44 145.980
DUCHIFAT 1 03 Dec 23:44:34 23:48:41 47° 99° (E) 23:52:44 145.980
UNISAT 6 03 Dec 23:45:21 23:48:56 24° 298° (WNW) 23:52:26 437.425
GONETS M04 03 Dec 23:58:40 00:06:05 33° 82° (E) 00:13:28
POPSAT HIP 1 03 Dec 23:59:49 00:04:07 76° 102° (ESE) 00:08:21 437.405
DX 1 04 Dec 00:03:23 00:07:38 51° 259° (W) 00:11:55 434.975-435.025
ISS 04 Dec 00:09:03 00:11:07 16° 222° (SW) 00:13:10 145.825
UKube-1 04 Dec 00:15:52 00:20:04 50° 260° (W) 00:24:18 .
TIGRISAT 04 Dec 00:17:07 00:19:30 14° 304° (WNW) 00:21:53 435.000
ANTELSAT 04 Dec 00:18:01 00:20:13 14° 304° (NW) 00:22:24 437.575/2403.000
AUBIESAT-1 04 Dec 00:27:38 00:31:12 27° 57° (ENE) 00:34:58 437.475
TISAT 1 04 Dec 00:29:43 00:33:55 69° 73° (ENE) 00:38:11 437.305
SPROUT 04 Dec 00:35:14 00:38:40 23° 267° (W) 00:42:09 437.525
M-CUBED/EXP-1 PRIME 04 Dec 00:37:11 00:41:02 38° 61° (ENE) 00:45:11 437.505
AISAT 04 Dec 00:42:54 00:45:12 14° 272° (W) 00:47:31 437.250
SWISSCUBE 04 Dec 00:43:48 00:47:50 28° 63° (ENE) 00:51:53 437.505
BEESAT 04 Dec 00:48:09 00:52:11 28° 62° (ENE) 00:56:13 436.000
Gurwin Techsat 1B 04 Dec 00:51:48 00:54:46 15° 87° (E) 00:57:43 435.225
BUGSAT 1 04 Dec 00:52:23 00:56:39 86° 285° (WNW) 01:00:49 437.445
NANOSAT C BR1 04 Dec 00:56:50 01:00:37 32° 294° (WNW) 01:04:23 145.865
QB50P2 04 Dec 01:00:13 01:03:49 27° 296° (WNW) 01:07:24 145.880/145.840
POLYITAN 1 04 Dec 01:00:48 01:04:26 28° 295° (WNW) 01:08:03 437.675
JAS-2 04 Dec 01:08:53 01:13:16 28° 299° (WNW) 01:17:39 435.910
O/OREOS (USA 219) 04 Dec 01:09:41 01:13:47 33° 53° (NE) 01:17:51 437.305
ITUPSAT 1 04 Dec 01:13:24 01:17:56 44° 67° (ENE) 01:22:28 437.325
QB50P1 04 Dec 01:15:00 01:18:16 22° 298° (WNW) 01:21:31 145.935-145.965
Oscar 19 04 Dec 01:15:28 01:20:23 41° 98° (E) 01:25:16 437.125/150
SO-50 04 Dec 01:17:33 01:19:36 13° 359° (N) 01:21:40 436.795
Cosmos 2499 04 Dec 01:20:03 01:28:39 88° 277° (W) 01:37:39 435.465 / 435.565
DUCHIFAT 1 04 Dec 01:20:50 01:24:05 22° 298° (WNW) 01:27:18 145.980
POPSAT HIP 1 04 Dec 01:36:56 01:39:20 15° 302° (WNW) 01:41:45 437.405
GONETS M04 04 Dec 01:53:38 02:02:18 67° 284° (WNW) 02:11:01
AO-85 04 Dec 01:56:02 01:59:23 19° 114° (ESE) 02:02:35 145.980
AUBIESAT-1 04 Dec 02:01:31 02:05:25 41° 257° (WSW) 02:09:38 437.475
TISAT 1 04 Dec 02:07:41 02:10:02 14° 271° (W) 02:12:24 437.305
M-CUBED/EXP-1 PRIME 04 Dec 02:12:05 02:15:37 27° 261° (W) 02:19:23 437.505
MOZHAYETS 4 04 Dec 02:16:35 02:20:56 44° 69° (ENE) 02:25:17
SWISSCUBE 04 Dec 02:20:54 02:25:28 43° 261° (W) 02:30:02 437.505
BEESAT 04 Dec 02:25:14 02:29:47 44° 261° (W) 02:34:22 436.000
BUGSAT 1 04 Dec 02:29:36 02:31:19 12° 304° (NW) 02:33:02 437.445
Gurwin Techsat 1B 04 Dec 02:30:06 02:35:29 90° 175° (S) 02:40:48 435.225
